sat.trackr.live / text

‹ back to catalog

STARLINK-34412

NORAD 66132 · 2025-237U

PAYLOAD ACTIVE UNKNOWN

§ Identity

Operator
Country
US
Launch date
2025-10-22
Launch site
AFWTR
Launch vehicle
Mass (kg)
RCS (m²)

Purposes: comms

External: N2YO · Heavens-Above · Gunter

§ Orbital elements

Epoch: 2026-09-20T06:13:17.611968Z

Period
93.85 min
Inclination
53.1585°
Eccentricity
0.0001508
Mean motion
15.34401961 rev/d
Perigee alt
461.7 km
Apogee alt
463.7 km
Semi-major
6,840.8 km
B*
5.3205e-4
RAAN
212.7739°
Arg perigee
67.5203°
Mean anomaly
292.5959°
Rev number
5,235

§ Raw data

STARLINK-344121 66132U 25237U   26263.25923162  .00017643  00000+0  53205-3 0  99942 66132  53.1585 212.7739 0001508  67.5203 292.5959 15.34401961 52355

JSON: /api/v1/satellites/66132 · /tle

For live sub-satellite position, see the globe view (requires WebGL).

§ Visibility from observer

Set your observer location to see the next 7 days of passes ≥ 10°. The values pass through the URL so the page stays shareable.

No JS? Fill the form by hand. The geolocation button needs JavaScript.